Showing default

TELKOM 3S, 41944

Orbit data source: Space-Track

TELKOM 3S, 41944 is a payload satellite owned by Telkom (ID) in GEO that was launched on Tue, 14 Feb 2017 UTC via an ARIANE 5ECA launch vehicle from the French Guiana (FRGUI). Payload-class satellites include a variety of spacecraft equipped with specific instruments for various scientific and technological missions. These include communications satellites like Starlink; space stations such as the ISS; scientific satellites like the Hubble; Earth observation satellites from companies like Planet Labs, Umbra, and HawkEye 360; GPS; miniature CubeSats for education and research; and military/defense satellites.

Not visible in the next 10 days
Identifier
41944, 2017-007A
Orbit
GEO
Last TLE update
9 hours ago
Origin
Manufacturer
Thales Alenia
Mission
Operational Commercial Communications
Bus & Motor
SPACEBUS 4000B2, S400
Mass
3,500 kg wet, ~2,000 kg dry
Launch date (UTC)
2017-02-14 (8 years ago)
Launch vehicle
ARIANE 5ECA
Launch site
French Guiana (FRGUI)
Object type
Payload
Rocket body
Debris
Shape & HBR
Box + 2 Pan, 37 m
Radar Cross Section
31.794 m², Large (>1 m²)

Expand to show TLE details & history

TLE from 9 hours ago
0 TELKOM 3S
1 41944U 17007A   25182.87615238 -.00000358  00000-0  00000-0 0  9992
2 41944   0.0189 306.2210 0002323 151.2825 256.0709  1.00271072 30620
Epoch: 2025-07-01T21:01Z
TLE epoch observation values (Epoch: 2025-07-01T21:01:39.565Z)
Latitude
0.00711°
Longitude
117.97962°
Altitude
35,788.653 km
Speed
3.075 km/s
True Right ascension
23h 34m 14s
True Declination
0° 00' 26"
Sunlit
Object was in daylight at epoch
Visualization orbit readout
Latitude
0.01147°
Longitude
-107.23328°
Altitude
35,777.896 km
Speed
3.075 km/s
Apparent Right ascension
08h 16m 37s
Apparent Declination
-5° 03' 47"
Sunlit
Object is in daylight
Visualization observer readout
Local Sidereal Time
17:40:50
Azimuth
304.442° NW
Elevation
-40.603°
Doppler factor
1
Orbital elements
Apogee altitude
35,797.66 km
Perigee altitude
35,778.07 km
Semi-major axis
42,166.002 km
Eccentricity
0.00023
Inclination
0.0189°
RAAN
306.221°
Arg. of periapsis
151.2825°
True anomaly
Unknown
Mean anomaly
256.0709°
Eccentric anomaly
Unknown
Mean motion
0.25067 °/min
Orbital period
1,436.16 mins
BSTAR
0
Loading historical data...
41944 neighbors
Loading maneuver chart data...
Loading SW <> Apogee altitude chart data...
Loading historical data...
Loading historical data...
Loading historical data...
Loading historical data...
Loading historical data...
Loading historical data...
Loading historical data...
Other satellites on launch #7 in the year 2017 (2017-02-14 UTC)

TELKOM 3S Visibility

Observer location: undefined°, undefined°

TELKOM 3S is likely not visible in the next few days
Span
Click to sort rows by Start time (UTC) header in descending order
Start Az.
Max El. time (UTC)
Max El. Az.
Max El.
End time (UTC)
End Az.
|